Regional Weather Roundup
Issued by NWS

Home | Current Version | Previous Version | Text Only | Print | Product List | Glossary On
Versions: 1 2 3 4 5 6 7 8 9 10 11 12 13 14 15 16 17 18 19 20 21 22 23 24 25 26 27 28 29 30 31 32 33 34 35 36 37 38 39 40 41 42 43 44 45 46 47 48 49 50
000
ASUS43 KMKX 190711
RWRWI

WISCONSIN REGIONAL WEATHER ROUNDUP
NATIONAL WEATHER SERVICE MILWAUKEE/SULLIVAN WI
200 AM CDT THU OCT 19 2017

NOTE: "FAIR" INDICATES FEW OR NO CLOUDS BELOW 12,000 FEET WITH NO
SIGNIFICANT WEATHER AND/OR OBSTRUCTIONS TO VISIBILITY.

WIZ001-002-006>008-014>016-023>028-190800-
NORTHWEST WISCONSIN

CITY           SKY/WX    TMP DP  RH WIND       PRES   REMARKS
SUPERIOR ARPT  CLOUDY    47  22  38 SW10      29.92R
ASHLAND        CLOUDY    48  21  34 SW9       29.91R
HAYWARD        CLOUDY    48  23  37 SW6       29.96R
SIREN          CLOUDY    47  24  40 W7        29.98S
CUMBERLAND     CLOUDY    41  27  56 SW5       30.00R
RICE LAKE      CLOUDY    43  28  55 SW3       30.01R
CHETEK         CLOUDY    46  28  48 SW3       30.00R
LADYSMITH      CLOUDY    46  26  45 SW6       29.99S
EAU CLAIRE     CLOUDY    45  28  51 SW7       30.01R
MENOMONIE      CLOUDY    48  30  49 W5        30.02R
NEW RICHMOND   CLOUDY    45  29  53 SW6       30.02R
OSCEOLA        CLOUDY    43  31  63 SW3       30.04R
$$

WIZ003>005-009-010-017-018-190800-
NORTH CENTRAL WISCONSIN

CITY           SKY/WX    TMP DP  RH WIND       PRES   REMARKS
MANITOWISH WTR PTCLDY    46  19  33 W7        29.91S
ARBOR VITAE    CLOUDY    50  21  31 W8        29.92R
WOODRUFF       CLOUDY    50  21  31 W8        29.92R
RHINELANDER    CLOUDY    48  21  34 W12       29.94R
EAGLE RIVER    CLOUDY    48  16  27 W9        29.91S
LAND O LAKES   CLOUDY    47  18  30 W5        29.91S
PHILLIPS       CLOUDY    46  22  40 W5        29.95R
TOMAHAWK       CLOUDY    46  19  34 W7        29.95S
MEDFORD        PTCLDY    46  24  42 W3        29.98R
MERRILL        CLOUDY    50  22  34 W7        29.96R
$$

WIZ029-030-035-036-043>047-190800-
CENTRAL WISCONSIN

CITY           SKY/WX    TMP DP  RH WIND       PRES   REMARKS
WAUSAU         PTCLDY    49  26  41 W9        29.95R
MOSINEE        PTCLDY    46  27  46 W7        29.98S
MARSHFIELD     CLOUDY    46  26  45 W7        29.99R
STEVENS POINT  PTCLDY    51  24  34 W8        29.99R
WAUPACA        CLOUDY    55  26  32 W7        29.98R
WAUTOMA        CLOUDY    54  27  35 W8        30.01R
WISC RAPIDS    CLOUDY    51  26  37 W6        30.01R
CAMP DOUGLAS   CLOUDY    48  26  43 NW7       30.02R
$$

WIZ011>013-019>022-031-037>040-048>050-190800-
NORTHEAST WISCONSIN

CITY           SKY/WX    TMP DP  RH WIND       PRES   REMARKS
ANTIGO         CLOUDY    48  24  38 W10       29.95R
SHAWANO        CLOUDY    57  27  31 W6        29.94R
OCONTO         CLOUDY    56  29  35 W9        29.92R
STURGEON BAY   CLOUDY    59  43  55 W14       29.91R
GREEN BAY      CLOUDY    56  35  45 W13       29.95R
MANITOWOC      CLOUDY    59  46  62 W12       29.94R
APPLETON       CLOUDY    52  32  46 W9        29.96R
CLINTONVILLE   CLOUDY    55  25  30 W12G17    29.95R
OSHKOSH        CLOUDY    56  34  43 NW10      29.97R
$$

WIZ032>034-041-042-053>061-190800-
SOUTHWEST WISCONSIN

CITY           SKY/WX    TMP DP  RH WIND       PRES   REMARKS
LA CROSSE      CLOUDY    52  32  46 CALM      30.03R
SPARTA         CLOUDY    42  32  68 CALM      30.04R
VIROQUA        CLOUDY    50  29  45 NW3       30.03R
BOSCOBEL       CLEAR     48  43  82 CALM      30.04R
PRAIRIE DU CHI PTCLDY    51  40  64 NW3       30.04R
PLATTEVILLE    CLEAR     55  49  80 W3        30.04R
$$

WIZ056-057-062-063-064-067-068-190800-
SOUTH CENTRAL WISCONSIN

CITY           SKY/WX    TMP DP  RH WIND       PRES   REMARKS
REEDSBURG      CLOUDY    54  30  40 NW5       30.02R
BARABOO/DELLS  CLOUDY    54  27  35 NW5       30.02R
LONE ROCK      PTCLDY    54  42  64 W5        30.03R
MINERAL POINT  CLEAR     54  46  76 NW3       30.04R
MADISON        CLEAR     56  47  71 W3        30.01R
MIDDLETON      CLEAR     55  47  74 W8        30.02R
WATERTOWN      PTCLDY    53  46  76 SW5       30.00R
MONROE         CLEAR     54  43  66 W12       30.03R
JANESVILLE     CLEAR     55  43  62 W6        30.01R
$$

WIZ051-052-058>065-066-070>072-190800-
SOUTHEAST WISCONSIN

CITY           SKY/WX    TMP DP  RH WIND       PRES   REMARKS
MILWAUKEE      CLOUDY    62  44  51 SW17G23   29.98R
WAUKESHA       CLOUDY    57  43  58 W12G20    30.00R
MILWAUKEE/TIMM CLOUDY    59  41  51 W12       29.99R
RACINE         CLOUDY    60  44  55 SW10      30.00S
BURLINGTON     CLOUDY    56  46  68 SW12      29.99S
KENOSHA        CLEAR     59  44  57 SW15G22   29.99S
FOND DU LAC    CLOUDY    56  41  57 W10       29.99R
SHEBOYGAN      PTCLDY    59  47  64 W13G20    29.95R
WEST BEND      CLOUDY    57  43  58 W15G21    29.97R
JUNEAU         CLOUDY    52  45  77 W3        30.01R
$$

LSZ147-162-190800-
LAKE SUPERIOR

STATION/POSITION TIME  TEMP    WIND        PRES    WAVE
                       AIR SEA DIR/SP/G            HT/PER
                 (UTC) (F)     (DEG/KT/KT) (MB)    (FT/S)
W MID LAKE BUOY  0650   54 53              1008.6R   6/ 6
DEVILS ISLAND    0600   56     250/ 29/ 35 1010.4R
SAXON HARBOR     0640   53     210/  7/ 11 1012.2S
$$

LMZ867-665-643>646-190800-
LAKE MICHIGAN

STATION/POSITION TIME  TEMP    WIND        PRES    WAVE
                       AIR SEA DIR/SP/G            HT/PER
                 (UTC) (F)     (DEG/KT/KT) (MB)    (FT/S)
S GREEN BAY BUOY 0700   60 58  270/ 16/ 19 1012.8
N MID LAKE BUOY  0650   60 58  240/ 17/ 19 1010.8R   8/ 8
NORTHPORT PIER   0640   60     280/  6/ 12 1011.2R
KEWAUNEE LAKESHO 0636          270/  8/ 12 1011.9R
SHEBOYGAN LAKESH 0700   62     270/ 15/ 20 1013.8R
PORT WASHINGTON  0640   62     270/ 13/ 22 1014.9R
MILWAUKEE LAKESH 0630   62     240/ 14/ 16   N/A
S MID LAKE BUOY  0550   62 61  240/ 17/ 21 1015.5F   4/ 5
KENOSHA   LAKESH 0600   62     230/ 11/ 16 1015.6
$$

TC  - TEMPERATURE IN CELSIUS
VSB - VISIBILITY IN STATUTE MILES
WCI - WIND CHILL INDEX
HX  - HEAT INDEX




USA.gov is the U.S. government's official web portal to all federal, state and local government web resources and services.